Helicity
118 140 151 169 206 203 140 43 28 2 45 103 98 133 67 93 88 65 43 41 53 81 112 114 141 178 189 161 181 225 224 278 362 429 424 397 308 248 206 186 213 197 219 228
76 37 121 134 106 166 128 7 -11 -21 -24 75 114 146 122 61 86 85 59 47 64 68 107 127 142 182 194 154 187 226 211 229 233 272 344 315 260 234 219 229 196 210 252 301
10 15 29 93 98 59 120 90 28 -38 -8 108 120 126 108 58 86 87 94 74 61 87 113 142 147 198 209 187 245 241 217 214 246 273 307 287 252 240 236 276 306 289 301 332
50 59 25 -33 28 -13 -58 -29 8 46 44 38 94 99 75 95 77 63 107 116 102 103 91 94 137 255 273 239 240 251 238 280 306 293 307 306 320 322 372 375 339 323 308 346
37 25 44 56 17 24 11 -3 20 -13 -16 69 167 78 38 99 74 58 75 132 108 109 104 117 198 264 325 304 295 304 317 295 272 298 395 399 339 339 352 332 346 347 346 344
109 54 -2 31 11 15 2 47 49 68 25 94 203 75 58 66 48 67 63 77 98 96 135 147 193 253 318 312 322 335 333 306 314 325 313 314 312 336 366 401 427 442 495 463
107 76 40 38 -17 19 -4 47 30 24 -6 131 114 117 101 116 18 45 50 51 105 112 103 133 203 254 317 362 348 387 352 345 331 285 274 278 310 316 379 467 524 526 526 495
134 126 36 29 36 -16 -5 123 20 -14 -4 116 199 229 151 84 12 35 115 101 46 77 158 208 230 310 353 393 362 350 351 354 342 330 306 335 411 439 447 453 462 439 446 479
122 105 98 56 31 45 109 119 73 -18 -4 171 253 278 211 59 20 65 85 107 104 192 216 288 305 310 386 322 313 319 367 347 346 361 382 394 420 413 410 378 366 357 375 411
158 106 59 37 21 -8 39 93 76 -16 -2 122 394 298 203 59 -13 -4 31 113 132 224 248 242 206 221 221 225 262 327 370 385 380 429 470 472 428 345 310 306 312 318 341 371
112 102 53 33 104 8 31 43 -25 22 -38 110 279 293 190 69 13 33 92 132 123 169 219 232 243 261 238 225 278 349 367 352 390 417 435 468 472 375 323 306 253 266 307 336
158 136 97 54 25 44 52 29 87 13 7 39 65 64 77 66 61 64 83 111 199 277 289 304 320 326 304 289 287 314 325 316 326 362 382 382 409 475 485 378 361 393 427 425
106 91 37 25 47 82 64 31 24 45 87 22 -36 -15 126 114 118 117 171 139 206 163 231 373 407 379 373 337 335 338 324 324 352 373 386 408 432 457 517 595 609 537 494 464
177 56 58 86 54 73 122 136 42 48 87 109 92 96 182 230 265 293 279 287 384 415 422 386 479 432 391 415 509 556 546 524 499 499 497 473 435 380 316 294 303 307 294 276
116 106 74 48 52 79 124 133 51 50 83 145 137 161 189 265 315 306 337 338 386 442 460 534 606 525 497 531 550 531 502 502 474 413 339 314 307 271 225 203 209 246 281 323
158 148 141 106 87 86 97 113 70 88 119 131 182 211 177 236 321 354 416 451 515 468 497 595 661 564 499 523 476 474 460 457 396 328 310 280 258 256 263 282 287 267 247 223
121 144 170 136 87 86 59 70 55 47 95 155 185 207 220 256 331 398 460 483 554 602 580 591 559 496 550 519 499 420 342 295 275 261 259 261 266 269 257 251 244 238 233 222
150 141 152 137 127 135 169 157 139 148 121 106 255 342 395 380 382 393 377 369 439 506 512 393 355 360 352 287 229 206 206 212 223 224 216 227 222 204 197 195 188 192 212 248
154 147 152 165 174 142 141 127 143 104 170 188 182 231 265 320 343 394 412 460 448 430 386 314 315 296 265 239 206 192 195 196 191 176 162 164 173 179 183 188 199 211 208 202
131 144 172 176 162 180 205 222 237 269 263 300 325 347 377 381 349 320 308 370 317 227 202 220 214 216 200 196 168 134 131 127 126 130 136 148 162 175 181 197 188 184 180 176
192 196 217 237 248 266 255 207 209 222 211 233 222 203 181 175 173 146 181 199 192 168 169 175 135 104 91 88 98 100 107 120 136 140 144 138 149 155 166 171 172 160 152 142
209 205 182 154 153 165 161 133 124 120 129 131 114 103 118 120 111 129 128 86 72 107 91 93 88 112 99 115 99 108 113 118 117 116 120 120 126 130 131 129 130 123 110 107
95 88 98 113 103 94 111 117 115 112 114 98 96 95 95 79 65 61 85 88 80 97 83 74 89 110 112 86 84 91 91 91 85 79 84 86 81 79 80 85 83 87 97 95
104 93 78 48 59 92 117 92 98 106 103 108 118 89 58 53 82 64 51 83 92 86 69 56 73 91 80 63 65 63 59 63 61 62 61 62 58 55 57 57 70 72 80 86
73 79 84 83 94 82 79 74 94 99 105 112 112 105 88 63 29 28 54 63 91 69 64 80 83 76 49 40 40 49 51 50 41 45 52 48 47 51 52 59 60 61 65 68
92 89 89 104 80 64 57 60 68 58 54 80 91 75 74 63 57 59 64 59 49 47 44 41 40 41 42 47 48 50 54 56 57 57 56 55 58 60 54 55 59 65 65 62
104 96 95 109 112 90 79 70 77 72 62 50 64 65 70 72 79 71 64 50 42 38 44 45 44 44 43 50 57 57 55 59 68 68 68 63 58 56 59 62 64 65 65 63
Wind_Speed
57 60 60 69 72 72 75 76 87 93 97 84 80 74 81 62 52 57 55 42 22 19 16 16 15 13 15 15 13 16 17 18 23 24 29 31 35 35 35 35 35 32 30 29
70 66 72 83 75 75 76 73 87 96 105 80 82 78 77 74 59 47 51 44 42 28 25 20 19 17 17 19 16 18 20 22 24 27 29 29 29 28 29 31 33 30 28 27
78 59 64 86 76 72 75 76 78 96 95 94 96 88 76 77 64 54 41 39 41 35 23 22 21 18 20 22 26 22 24 22 20 24 29 29 28 29 28 29 30 31 30 30
72 65 88 77 59 65 79 85 82 91 94 97 105 95 85 79 70 72 70 56 40 38 41 29 27 25 21 25 24 20 20 19 21 22 26 27 26 28 29 29 29 30 34 35
73 75 84 91 73 68 78 102 82 89 91 88 88 97 109 72 76 79 72 65 58 41 31 32 27 28 25 26 27 26 21 20 23 24 26 24 24 27 30 30 31 33 29 29
53 67 76 63 56 55 53 95 65 67 76 80 83 92 100 91 81 82 71 62 64 59 46 37 30 25 23 24 28 29 26 23 24 26 24 23 24 24 26 25 24 23 25 28
55 63 65 59 61 53 66 69 72 72 74 76 80 83 93 99 109 96 86 79 60 52 44 38 28 23 25 24 28 27 25 25 28 30 29 27 25 23 18 14 14 18 21 26
46 56 72 37 44 52 60 66 72 77 73 75 80 89 89 85 79 78 81 71 62 56 49 41 30 26 25 21 18 21 24 26 29 31 33 29 23 20 17 16 17 20 21 23
44 51 39 38 52 59 62 64 76 75 72 73 78 83 82 76 61 51 51 50 48 48 45 41 31 24 19 18 15 16 22 27 31 30 29 27 22 20 19 21 22 22 21 23
51 57 64 65 62 63 64 59 67 69 66 70 77 77 75 68 57 48 43 39 30 26 26 25 19 15 14 14 14 19 24 26 27 28 27 26 25 26 24 23 24 25 26 28
65 74 75 74 64 73 77 76 78 74 66 72 72 73 70 63 53 43 37 31 25 22 21 23 21 17 17 17 17 18 20 25 26 26 26 26 29 30 29 30 26 26 28 30
66 53 57 62 64 68 66 66 68 68 65 64 60 68 57 51 48 45 39 30 25 26 21 24 26 23 21 20 15 13 17 21 24 23 22 23 24 29 34 32 31 30 30 31
67 70 71 73 67 65 68 63 63 61 56 67 66 56 47 46 45 40 42 39 36 24 24 26 27 29 27 25 21 20 19 20 21 23 24 26 28 28 29 34 33 31 30 31
56 62 55 54 61 65 64 59 61 61 58 58 56 49 43 41 43 43 43 39 32 31 26 27 28 33 26 22 18 21 24 25 26 26 25 28 29 30 32 35 38 39 37 38
55 56 60 57 58 59 58 55 58 59 57 54 50 46 42 39 39 38 37 33 30 30 32 34 32 31 27 24 22 23 23 23 24 24 26 30 34 35 37 39 41 41 41 44
68 69 60 59 59 58 56 52 52 53 51 50 47 44 38 35 34 35 35 35 32 34 35 33 33 29 28 24 25 27 29 29 29 30 33 37 40 42 44 46 47 47 49 51
60 57 62 61 59 58 53 50 47 46 47 45 40 36 32 31 31 33 34 35 36 36 36 36 34 32 33 33 31 31 33 35 35 37 40 43 44 46 47 47 49 49 50 52
44 43 46 45 47 46 48 46 42 41 38 35 34 32 31 30 31 33 33 34 35 37 39 35 36 37 38 37 36 36 37 38 40 42 43 44 45 46 46 48 49 51 51 54
39 38 38 37 38 36 39 38 37 33 34 30 27 30 31 32 33 34 34 36 38 38 41 39 40 41 41 41 39 39 40 41 43 44 45 46 48 49 50 51 53 54 56 59
30 32 34 35 33 33 34 34 30 28 27 28 27 27 30 33 34 34 35 39 40 38 39 41 41 42 43 44 43 43 44 44 45 46 47 49 50 52 54 56 57 59 61 62
30 32 33 31 33 33 33 30 29 27 26 30 28 30 30 32 33 33 35 37 41 41 42 43 44 44 46 46 46 46 46 47 48 50 52 53 55 56 58 60 62 64 66 65
32 32 33 33 31 32 34 34 33 32 31 33 32 32 34 35 35 38 40 39 40 42 43 45 46 48 48 49 49 50 50 51 52 52 54 55 57 59 62 63 66 66 65 63
36 37 35 37 34 38 38 37 36 37 36 35 35 36 37 37 38 38 41 44 43 45 47 49 50 51 51 51 50 50 51 51 53 54 55 57 59 60 62 64 64 65 66 68
37 40 37 34 34 35 37 37 38 39 39 39 40 39 38 39 42 43 42 43 45 48 50 51 52 52 51 51 52 53 53 53 54 55 55 56 57 58 61 62 63 65 67 69
36 36 35 36 37 38 38 38 39 41 41 41 42 43 42 43 41 42 44 46 48 50 51 52 52 53 53 52 52 52 52 53 54 55 56 59 59 59 59 61 63 66 67 68
35 36 37 39 39 39 39 39 41 41 41 42 44 44 44 44 43 44 45 47 48 49 51 52 53 53 53 51 50 50 52 54 55 56 57 57 57 59 61 63 65 67 68 68
37 38 39 41 43 42 41 41 42 44 43 43 45 45 44 44 44 45 46 48 49 50 51 52 53 53 50 49 50 51 53 54 56 56 56 56 57 59 62 65 66 66 65 64
Wind_Direction
278 279 279 278 278 278 279 279 274 275 274 286 285 288 278 288 294 292 295 290 288 280 267 246 244 246 253 238 236 249 240 240 233 250 256 252 247 248 251 251 251 254 262 270
276 279 279 275 278 280 282 285 279 276 272 285 288 286 283 281 288 289 292 293 285 285 284 259 245 236 256 251 237 258 257 259 278 283 281 265 260 260 256 250 252 259 264 266
275 282 282 276 279 279 281 284 284 279 280 283 278 281 285 282 286 287 293 288 287 287 271 251 238 259 252 245 272 259 264 268 271 286 289 281 272 271 262 256 267 267 274 276
276 283 274 283 292 287 283 281 282 284 285 282 275 278 280 281 282 284 287 294 283 278 278 268 262 265 271 270 261 257 261 272 287 294 296 293 282 276 277 276 272 276 285 287
276 277 284 286 290 288 289 279 283 283 287 283 287 276 265 277 277 283 288 293 292 289 275 270 262 264 271 273 274 275 269 277 292 302 307 302 293 288 288 285 286 289 289 291
283 283 283 295 307 309 305 282 294 294 292 282 288 276 274 274 281 279 286 295 293 296 296 286 269 262 260 270 273 276 281 291 301 308 311 308 305 300 300 297 295 296 301 303
283 287 294 300 304 309 295 294 300 296 292 286 282 283 285 283 269 273 275 283 295 292 292 293 285 270 265 272 273 280 287 298 306 312 315 317 317 313 307 305 305 307 310 315
286 288 290 318 317 309 308 311 301 296 295 292 288 289 292 293 292 280 275 279 287 291 291 290 286 281 277 270 282 288 292 299 307 312 314 317 317 318 313 308 307 307 308 313
284 292 310 322 312 319 318 313 301 295 301 300 289 289 292 297 304 305 294 290 291 286 292 295 297 287 275 284 291 299 304 307 311 316 318 318 314 310 310 309 305 304 304 305
289 292 295 301 310 317 319 318 310 294 308 299 287 287 290 300 302 306 311 307 310 306 301 305 309 306 299 302 305 308 308 312 316 318 321 323 321 316 311 306 303 302 302 303
286 292 295 298 306 308 308 304 292 282 302 294 287 288 291 296 306 310 315 319 318 314 312 310 316 314 312 310 309 315 317 315 318 323 322 324 325 319 315 315 309 303 303 304
285 297 299 301 310 313 309 311 307 284 288 303 296 289 300 300 300 308 313 317 317 314 314 309 311 317 323 322 322 325 329 326 323 326 330 328 326 329 335 329 324 322 320 315
287 292 293 294 295 303 297 304 307 310 313 304 296 300 303 299 307 314 311 310 310 309 319 311 314 313 316 313 317 324 327 330 333 331 331 328 325 325 324 337 342 339 336 332
296 293 291 298 295 293 296 303 304 306 313 312 309 308 311 309 309 314 317 315 316 314 315 315 322 312 319 322 334 329 331 334 335 339 335 333 333 331 328 322 319 321 328 325
288 288 285 294 298 301 302 310 305 303 314 317 320 320 319 321 324 332 337 329 332 331 328 325 326 314 327 329 337 339 341 349 349 348 342 337 332 330 328 325 321 319 321 324
282 282 288 293 295 299 306 313 309 307 316 324 325 326 328 334 342 347 349 346 337 340 339 342 335 334 348 352 355 352 347 350 341 338 334 331 329 327 325 324 322 321 319 319
285 287 288 288 290 293 304 310 314 315 318 323 333 336 342 346 353 357 360 2 5 4 1 356 352 354 355 357 358 346 344 341 339 336 331 328 328 327 328 328 326 326 326 328
302 302 309 305 302 307 305 308 315 318 327 336 343 347 351 351 351 354 359 4 4 3 358 355 357 356 353 351 349 346 342 341 341 338 336 336 337 337 336 334 331 329 329 331
304 311 319 320 320 326 324 317 322 319 327 339 347 359 5 360 359 1 5 5 2 1 355 355 357 357 355 353 353 350 348 345 344 342 340 339 338 337 335 334 333 331 330 328
333 339 342 347 342 343 341 332 334 340 336 349 353 353 355 356 0 6 7 6 0 358 358 357 358 357 355 353 352 349 346 344 343 341 340 338 337 336 335 334 333 331 330 329
354 359 4 5 12 11 11 7 8 4 355 8 7 9 9 7 4 3 5 3 357 359 0 360 358 355 353 351 350 348 347 345 343 340 339 338 337 336 335 334 333 332 330 330
12 16 19 23 22 22 20 23 23 22 18 20 19 17 15 11 9 9 7 6 1 360 359 358 356 354 351 350 348 346 344 343 341 341 340 339 338 336 335 335 334 334 334 334
34 35 31 31 28 33 31 23 20 22 19 15 11 7 4 360 356 356 353 355 357 356 355 354 353 352 351 349 349 348 346 345 343 342 340 340 339 338 337 336 336 336 336 335
34 34 29 22 23 21 18 12 13 12 11 9 5 2 1 360 358 358 1 359 356 353 351 350 350 350 350 349 348 346 345 345 344 344 344 343 343 343 340 340 340 340 339 337
25 22 14 12 11 8 8 6 6 4 4 3 1 359 358 356 356 355 355 353 353 351 350 350 349 349 348 348 348 348 349 349 348 347 346 342 343 344 344 343 342 340 340 339
9 7 3 1 1 1 2 1 357 356 356 353 353 352 352 352 353 353 353 353 352 352 352 351 350 350 350 350 352 352 351 350 350 348 347 347 347 345 344 343 343 342 341 341
4 3 2 359 357 357 356 355 352 349 351 351 346 349 351 352 353 352 353 352 352 352 352 352 352 352 353 354 353 353 352 351 348 348 348 348 348 347 345 344 344 344 345 345